FW0765 Weather Reports


time (UTC)temp
C
wind
direction
speed
KPH
gust
KPH
rain 1hr
cm
rain 24hr
cm
rain mn
cm
humidity
%
barometer
mb
20260510060039 19 186 3.2 6.4 0.00 0.00 0.00 83 1008.4
20260510054535 19 186 1.6 6.4 0.00 0.00 0.00 84 1008.5
20260510053026 19 186 1.6 4.8 0.00 0.00 0.00 84 1008.6
20260510051525 19 186 3.2 4.8 0.00 0.00 0.00 84 1008.6
20260510050021 20 186 3.2 6.4 0.00 0.00 0.00 83 1008.6
20260510044524 20 186 3.2 6.4 0.00 0.00 0.00 82 1008.7
20260510043026 20 186 3.2 6.4 0.00 0.00 0.00 81 1008.7
20260510041521 21 186 3.2 6.4 0.00 0.00 0.00 81 1008.8
20260510040020 21 186 1.6 9.7 0.00 0.00 0.00 80 1008.6
20260510034523 21 188 4.8 9.7 0.00 0.00 0.00 80 1008.6
20260510033018 21 167 3.2 6.4 0.00 0.00 0.00 79 1008.4
20260510031518 22 167 1.6 4.8 0.00 0.00 0.00 77 1008.3
20260510030019 22 167 3.2 8.0 0.00 0.00 0.00 75 1008.0
20260510024516 23 164 3.2 8.0 0.00 0.00 0.00 72 1007.9
20260510023016 23 163 3.2 8.0 0.00 0.00 0.00 69 1007.7
20260510021515 25 161 1.6 8.0 0.00 0.00 0.00 66 1007.7
20260510020015 25 157 3.2 8.0 0.00 0.00 0.00 62 1007.4
20260510014514 26 185 1.6 3.2 0.00 0.00 0.00 58 1007.2
20260510013015 27 185 0.0 3.2 0.00 0.00 0.00 55 1007.1
20260510011514 28 185 1.6 6.4 0.00 0.00 0.00 52 1006.9
20260510010013 29 171 1.6 8.0 0.00 0.00 0.00 48 1006.8
20260510004513 30 181 3.2 9.7 0.00 0.00 0.00 44 1006.7
20260510003022 30 192 3.2 8.0 0.00 0.00 0.00 44 1006.6
20260510001511 31 225 1.6 14.5 0.00 0.00 0.00 43 1006.6
20260510000011 31 211 6.4 12.9 0.00 0.00 0.00 43 1006.5
20260509234516 31 161 4.8 11.3 0.00 0.00 0.00 43 1006.4
20260509233009 31 184 3.2 11.3 0.00 0.00 0.00 43 1006.6
20260509231512 31 181 4.8 14.5 0.00 0.00 0.00 42 1006.7
20260509230007 31 196 8.0 16.1 0.00 0.00 0.00 47 1006.7
20260509224506 31 220 9.7 19.3 0.00 0.00 0.00 45 1006.8
20260509223005 31 227 6.4 12.9 0.00 0.00 0.00 44 1006.7
20260509221504 31 241 8.0 12.9 0.00 0.00 0.00 49 1007.0
20260509220003 31 213 8.0 14.5 0.00 0.00 0.00 50 1007.1
20260509214604 30 215 9.7 16.1 0.00 0.00 0.00 49 1007.4
20260509213126 30 219 8.0 16.1 0.00 0.00 0.00 46 1007.5
20260509211554 30 232 4.8 16.1 0.00 0.00 0.00 51 1007.7
20260509204548 30 243 6.4 16.1 0.00 0.00 0.00 55 1008.2
20260509203045 29 211 9.7 17.7 0.00 0.00 0.00 55 1008.5
20260509201543 29 185 9.7 19.3 0.00 0.00 0.00 57 1008.7
20260509200040 28 272 6.4 19.3 0.00 0.00 0.00 57 1008.9
20260509194538 28 271 11.3 22.5 0.00 0.00 0.00 59 1009.1
20260509193041 28 217 6.4 12.9 0.00 0.00 0.00 60 1009.3
20260509191539 28 222 11.3 19.3 0.00 0.00 0.00 62 1009.5
20260509190032 27 201 8.0 17.7 0.00 0.00 0.00 62 1009.7
20260509184533 27 200 11.3 22.5 0.00 0.00 0.00 63 1009.9
20260509183031 27 241 6.4 17.7 0.00 0.00 0.00 64 1010.1
20260509181525 26 200 8.0 17.7 0.00 0.00 0.00 65 1010.3
20260509180023 26 220 11.3 17.7 0.00 0.00 0.00 68 1010.8
20260509174520 26 185 6.4 14.5 0.00 0.00 0.00 71 1010.9
20260509173019 25 217 3.2 16.1 0.00 0.00 0.00 76 1011.1
20260509171513 25 265 3.2 11.3 0.00 0.00 0.00 79 1011.2
20260509170013 23 202 4.8 11.3 0.00 0.00 0.00 82 1011.1
20260509164504 22 226 4.8 12.9 0.00 0.00 0.00 86 1011.3
20260509163100 21 215 8.0 16.1 0.00 0.00 0.00 89 1011.4
20260509161557 20 206 9.7 16.1 0.00 0.00 0.00 92 1011.4
20260509160051 19 195 9.7 19.3 0.00 0.00 0.00 95 1011.4
20260509154548 19 205 4.8 11.3 0.00 0.00 0.00 96 1011.7
20260509153059 18 211 6.4 11.3 0.00 0.00 0.00 96 1011.7
20260509151548 17 182 4.8 12.9 0.00 0.00 0.00 95 1012.0
20260509150046 17 175 3.2 4.8 0.00 0.00 0.00 96 1012.3
20260509144538 17 103 1.6 4.8 0.00 0.00 0.00 95 1012.1
20260509143037 17 93 0.0 3.2 0.00 0.00 0.00 96 1012.1
20260509141535 17 93 1.6 3.2 0.00 0.00 0.00 95 1012.0
20260509140040 16 93 1.6 6.4 0.00 0.00 0.00 95 1011.8
20260509134534 16 105 4.8 9.7 0.00 0.00 0.00 95 1011.5
20260509133032 16 118 3.2 6.4 0.00 0.00 0.00 95 1011.5
20260509131535 16 168 4.8 9.7 0.00 0.00 0.00 95 1011.5
20260509130030 16 184 0.0 4.8 0.00 0.00 0.00 95 1011.3
20260509124529 16 184 0.0 4.8 0.00 0.00 0.00 95 1011.0
20260509123027 16 184 0.0 6.4 0.00 0.00 0.00 95 1010.8
20260509121526 16 184 4.8 12.9 0.00 0.00 0.00 95 1010.5
20260509120027 15 161 8.0 12.9 0.00 0.00 0.00 94 1010.6
20260509114523 15 125 4.8 9.7 0.00 0.00 0.00 94 1010.7
20260509113023 15 121 4.8 9.7 0.00 0.00 0.00 95 1011.1
20260509111523 15 106 3.2 6.4 0.00 0.00 0.00 94 1010.8
20260509110022 15 92 0.0 3.2 0.00 0.00 0.00 94 1010.7
20260509104522 15 92 0.0 1.6 0.00 0.00 0.00 94 1010.9
20260509103021 15 91 1.6 6.4 0.00 0.00 0.00 94 1010.8
20260509101520 15 78 0.0 6.4 0.00 0.00 0.00 94 1011.5
20260509100020 15 79 0.0 4.8 0.00 0.00 0.00 94 1011.2
20260509094525 15 78 1.6 6.4 0.00 0.00 0.00 94 1010.7
20260509093020 15 76 0.0 0.0 0.00 0.00 0.00 93 1010.7
20260509091518 15 76 0.0 0.0 0.00 0.00 0.00 93 1011.0
20260509090017 15 76 0.0 3.2 0.00 0.00 0.00 93 1010.7
20260509084515 15 64 0.0 3.2 0.00 0.03 0.00 93 1010.7
20260509083014 15 63 0.0 1.6 0.00 0.03 0.00 93 1010.8
20260509081516 15 63 0.0 4.8 0.00 0.03 0.00 93 1011.0
20260509080013 15 63 0.0 0.0 0.00 0.03 0.00 93 1011.7
20260509074511 16 168 6.4 11.3 0.00 0.05 0.00 93 1011.3
20260509073020 16 169 0.0 4.8 0.00 0.05 0.00 93 1010.5
20260509071507 15 169 1.6 3.2 0.00 0.05 0.00 92 1009.9
20260509070004 16 169 0.0 1.6 0.00 0.05 0.00 92 1009.9
20260509064502 16 169 0.0 4.8 0.00 0.05 0.00 92 1009.7
20260509063001 16 169 3.2 8.0 0.00 0.05 0.00 92 1009.7
20260509061602 16 169 3.2 4.8 0.00 0.05 0.00 92 1009.8